Time,TemperatureF,DewpointF,PressureIn,WindDirection,WindDirectionDegrees,WindSpeedMPH,WindSpeedGustMPH,Humidity,HourlyPrecipIn,Conditions,Clouds,dailyrainin,SoftwareType,DateUTC
2013-03-05 00:01:00,25.0,19.0,29.94,SE,138,2.0,5.0,79,0.00,,,0.00,,2013-03-05 06:01:00,
2013-03-05 00:11:00,25.0,19.0,29.94,SE,138,2.0,5.0,79,0.00,,,0.00,,2013-03-05 06:11:00,
2013-03-05 00:22:00,25.0,19.0,29.94,SE,133,1.0,4.0,79,0.00,,,0.00,,2013-03-05 06:22:00,
2013-03-05 00:32:00,25.0,19.0,29.94,SE,133,1.0,4.0,79,0.00,,,0.00,,2013-03-05 06:32:00,
2013-03-05 00:42:00,25.0,19.0,29.94,SE,133,1.0,4.0,79,0.00,,,0.00,,2013-03-05 06:42:00,
2013-03-05 00:52:00,24.0,18.0,29.95,SSE,148,1.0,3.0,79,0.00,,,0.00,,2013-03-05 06:52:00,
2013-03-05 01:01:00,24.0,18.0,29.96,SSE,148,0.0,3.0,79,0.00,,,0.00,,2013-03-05 07:01:00,
2013-03-05 01:11:00,24.0,18.0,29.96,SSE,148,0.0,3.0,79,0.00,,,0.00,,2013-03-05 07:11:00,
2013-03-05 01:22:00,24.0,18.0,29.97,SSE,148,0.0,2.0,78,0.00,,,0.00,,2013-03-05 07:22:00,
2013-03-05 01:31:00,24.0,18.0,29.97,SSE,148,0.0,2.0,78,0.00,,,0.00,,2013-03-05 07:31:00,
2013-03-05 01:41:00,24.0,18.0,29.97,SSE,148,0.0,2.0,78,0.00,,,0.00,,2013-03-05 07:41:00,
2013-03-05 01:51:00,24.0,18.0,29.97,ENE,68,0.0,1.0,79,0.00,,,0.00,,2013-03-05 07:51:00,
2013-03-05 02:02:00,24.0,18.0,29.98,ENE,68,0.0,2.0,79,0.00,,,0.00,,2013-03-05 08:02:00,
2013-03-05 02:11:00,24.0,18.0,29.98,ENE,68,0.0,2.0,79,0.00,,,0.00,,2013-03-05 08:11:00,
2013-03-05 02:21:00,24.0,18.0,29.98,East,88,0.0,3.0,79,0.00,,,0.00,,2013-03-05 08:21:00,
2013-03-05 02:31:00,24.0,18.0,29.98,East,88,0.0,2.0,79,0.00,,,0.00,,2013-03-05 08:31:00,
2013-03-05 02:41:00,24.0,18.0,29.98,East,88,0.0,2.0,79,0.00,,,0.00,,2013-03-05 08:41:00,
2013-03-05 02:52:00,24.0,18.0,29.98,East,88,0.0,2.0,79,0.00,,,0.00,,2013-03-05 08:52:00,
2013-03-05 03:01:00,24.0,18.0,29.99,East,88,0.0,1.0,79,0.00,,,0.00,,2013-03-05 09:01:00,
2013-03-05 03:11:00,24.0,18.0,29.99,East,88,0.0,1.0,79,0.00,,,0.00,,2013-03-05 09:11:00,
2013-03-05 03:21:00,24.0,18.0,29.99,East,88,0.0,1.0,79,0.00,,,0.00,,2013-03-05 09:21:00,
2013-03-05 03:31:00,24.0,18.0,30.00,East,88,0.0,1.0,79,0.00,,,0.00,,2013-03-05 09:31:00,
2013-03-05 03:42:00,24.0,18.0,30.00,East,88,0.0,1.0,79,0.00,,,0.00,,2013-03-05 09:42:00,
2013-03-05 03:52:00,24.0,18.0,30.01,ENE,77,0.0,1.0,79,0.00,,,0.00,,2013-03-05 09:52:00,
2013-03-05 04:01:00,24.0,18.0,30.01,NW,315,3.0,8.0,79,0.00,,,0.00,,2013-03-05 10:01:00,
2013-03-05 04:11:00,24.0,18.0,30.01,NW,315,3.0,8.0,79,0.00,,,0.00,,2013-03-05 10:11:00,
2013-03-05 04:21:00,23.0,17.0,30.03,NNW,335,7.0,13.0,78,0.00,,,0.00,,2013-03-05 10:21:00,
2013-03-05 04:32:00,23.0,17.0,30.03,WNW,288,6.0,14.0,78,0.00,,,0.00,,2013-03-05 10:32:00,
2013-03-05 04:42:00,23.0,17.0,30.03,WNW,288,6.0,14.0,78,0.00,,,0.00,,2013-03-05 10:42:00,
2013-03-05 04:52:00,22.0,16.0,30.04,NNW,348,6.0,13.0,78,0.00,,,0.00,,2013-03-05 10:52:00,
2013-03-05 05:01:00,22.0,16.0,30.06,West,281,6.0,13.0,78,0.00,,,0.00,,2013-03-05 11:01:00,
2013-03-05 05:11:00,22.0,16.0,30.06,West,281,6.0,13.0,78,0.00,,,0.00,,2013-03-05 11:11:00,
2013-03-05 05:22:00,22.0,16.0,30.06,NW,312,5.0,13.0,78,0.00,,,0.00,,2013-03-05 11:22:00,
2013-03-05 05:32:00,21.0,15.0,30.07,NNW,333,6.0,15.0,78,0.00,,,0.00,,2013-03-05 11:32:00,
2013-03-05 05:42:00,21.0,15.0,30.07,NNW,333,6.0,15.0,78,0.00,,,0.00,,2013-03-05 11:42:00,
2013-03-05 05:52:00,21.0,15.0,30.08,NW,317,6.0,13.0,77,0.00,,,0.00,,2013-03-05 11:52:00,
2013-03-05 06:02:00,22.0,16.0,30.09,WNW,297,7.0,13.0,78,0.00,,,0.00,,2013-03-05 12:02:00,
2013-03-05 06:12:00,22.0,16.0,30.09,WNW,297,7.0,13.0,78,0.00,,,0.00,,2013-03-05 12:12:00,
2013-03-05 06:22:00,22.0,16.0,30.09,North,11,7.0,13.0,78,0.00,,,0.00,,2013-03-05 12:22:00,
2013-03-05 06:32:00,22.0,16.0,30.11,NW,321,6.0,14.0,77,0.00,,,0.00,,2013-03-05 12:32:00,
2013-03-05 06:42:00,22.0,16.0,30.11,NW,321,6.0,14.0,77,0.00,,,0.00,,2013-03-05 12:42:00,
2013-03-05 06:52:00,22.0,16.0,30.11,NNW,340,6.0,11.0,78,0.00,,,0.00,,2013-03-05 12:52:00,
2013-03-05 07:02:00,22.0,16.0,30.12,NNW,343,5.0,14.0,78,0.00,,,0.00,,2013-03-05 13:02:00,
2013-03-05 07:11:00,22.0,16.0,30.12,NNW,343,5.0,14.0,78,0.00,,,0.00,,2013-03-05 13:11:00,
2013-03-05 07:21:00,22.0,16.0,30.14,West,278,5.0,14.0,77,0.00,,,0.00,,2013-03-05 13:21:00,
2013-03-05 07:32:00,22.0,16.0,30.14,WNW,300,4.0,12.0,77,0.00,,,0.00,,2013-03-05 13:32:00,
2013-03-05 07:42:00,22.0,16.0,30.14,WNW,300,4.0,12.0,77,0.00,,,0.00,,2013-03-05 13:42:00,
2013-03-05 07:52:00,22.0,16.0,30.15,NNE,33,4.0,13.0,77,0.00,,,0.00,,2013-03-05 13:52:00,
2013-03-05 08:02:00,22.0,16.0,30.16,West,277,4.0,13.0,77,0.00,,,0.00,,2013-03-05 14:02:00,
2013-03-05 08:11:00,22.0,16.0,30.16,West,277,4.0,13.0,77,0.00,,,0.00,,2013-03-05 14:11:00,
2013-03-05 08:21:00,22.0,16.0,30.16,WSW,254,4.0,14.0,77,0.00,,,0.00,,2013-03-05 14:21:00,
2013-03-05 08:32:00,22.0,16.0,30.17,SW,236,6.0,16.0,77,0.00,,,0.00,,2013-03-05 14:32:00,
2013-03-05 08:42:00,22.0,16.0,30.17,SW,236,6.0,16.0,77,0.00,,,0.00,,2013-03-05 14:42:00,
2013-03-05 08:52:00,22.0,16.0,30.18,SW,223,5.0,16.0,77,0.00,,,0.00,,2013-03-05 14:52:00,
2013-03-05 09:01:00,23.0,17.0,30.19,NW,319,5.0,15.0,76,0.00,,,0.00,,2013-03-05 15:01:00,
2013-03-05 09:11:00,23.0,17.0,30.19,NW,319,5.0,15.0,76,0.00,,,0.00,,2013-03-05 15:11:00,
2013-03-05 09:21:00,23.0,16.0,30.20,South,175,5.0,15.0,75,0.00,,,0.00,,2013-03-05 15:21:00,
2013-03-05 09:32:00,23.0,16.0,30.20,WNW,297,5.0,13.0,75,0.00,,,0.00,,2013-03-05 15:32:00,
2013-03-05 09:42:00,23.0,16.0,30.20,WNW,297,5.0,13.0,75,0.00,,,0.00,,2013-03-05 15:42:00,
2013-03-05 09:52:00,23.0,16.0,30.21,WNW,296,0.0,15.0,74,0.00,,,0.00,,2013-03-05 15:52:00,
2013-03-05 10:01:00,23.0,16.0,30.21,WNW,296,0.0,15.0,74,0.00,,,0.00,,2013-03-05 16:01:00,
2013-03-05 10:11:00,23.0,16.0,30.21,WNW,296,0.0,15.0,74,0.00,,,0.00,,2013-03-05 16:11:00,
2013-03-05 10:21:00,24.0,17.0,30.22,NW,315,0.0,0.0,74,0.00,,,0.00,,2013-03-05 16:21:00,
2013-03-05 10:32:00,24.0,17.0,30.22,NW,315,0.0,0.0,74,0.00,,,0.00,,2013-03-05 16:32:00,
2013-03-05 10:42:00,24.0,17.0,30.22,NW,315,0.0,0.0,74,0.00,,,0.00,,2013-03-05 16:42:00,
2013-03-05 10:52:00,23.0,16.0,30.24,NW,315,0.0,0.0,73,0.00,,,0.00,,2013-03-05 16:52:00,
2013-03-05 11:01:00,23.0,16.0,30.24,WNW,291,0.0,0.0,73,0.00,,,0.00,,2013-03-05 17:01:00,
2013-03-05 11:11:00,23.0,16.0,30.24,WNW,291,0.0,0.0,73,0.00,,,0.00,,2013-03-05 17:11:00,
2013-03-05 11:21:00,23.0,16.0,30.24,WNW,300,0.0,0.0,73,0.00,,,0.00,,2013-03-05 17:21:00,
2013-03-05 11:32:00,23.0,16.0,30.25,NW,323,0.0,0.0,73,0.00,,,0.00,,2013-03-05 17:32:00,
2013-03-05 11:42:00,23.0,16.0,30.25,NW,323,0.0,0.0,73,0.00,,,0.00,,2013-03-05 17:42:00,
2013-03-05 11:52:00,23.0,16.0,30.26,WNW,298,0.0,0.0,73,0.00,,,0.00,,2013-03-05 17:52:00,
2013-03-05 12:01:00,22.0,14.0,30.27,WSW,247,0.0,0.0,72,0.00,,,0.00,,2013-03-05 18:01:00,
2013-03-05 12:11:00,22.0,14.0,30.27,WSW,247,0.0,0.0,72,0.00,,,0.00,,2013-03-05 18:11:00,
2013-03-05 12:22:00,22.0,14.0,30.27,WSW,250,0.0,0.0,72,0.00,,,0.00,,2013-03-05 18:22:00,
2013-03-05 12:32:00,22.0,15.0,30.29,WSW,257,0.0,0.0,73,0.00,,,0.00,,2013-03-05 18:32:00,
2013-03-05 12:42:00,22.0,15.0,30.29,WSW,257,0.0,0.0,73,0.00,,,0.00,,2013-03-05 18:42:00,
2013-03-05 12:53:00,23.0,15.0,30.29,WNW,292,0.0,0.0,72,0.00,,,0.00,,2013-03-05 18:53:00,
2013-03-05 13:01:00,23.0,15.0,30.29,SW,230,0.0,0.0,72,0.00,,,0.00,,2013-03-05 19:01:00,
2013-03-05 13:11:00,23.0,15.0,30.29,SW,230,0.0,0.0,72,0.00,,,0.00,,2013-03-05 19:11:00,
2013-03-05 13:21:00,23.0,15.0,30.29,WSW,237,0.0,0.0,70,0.00,,,0.00,,2013-03-05 19:21:00,
2013-03-05 13:32:00,23.0,15.0,30.30,NNW,328,0.0,0.0,70,0.00,,,0.00,,2013-03-05 19:32:00,
2013-03-05 13:42:00,23.0,15.0,30.30,NNW,328,0.0,0.0,70,0.00,,,0.00,,2013-03-05 19:42:00,
2013-03-05 13:52:00,23.0,15.0,30.30,West,277,0.0,0.0,70,0.00,,,0.00,,2013-03-05 19:52:00,
2013-03-05 14:01:00,23.0,15.0,30.29,WNW,288,0.0,0.0,71,0.00,,,0.00,,2013-03-05 20:01:00,
2013-03-05 14:11:00,24.0,16.0,30.30,West,270,0.0,0.0,70,0.00,,,0.00,,2013-03-05 20:11:00,
2013-03-05 14:21:00,24.0,16.0,30.30,West,270,0.0,0.0,70,0.00,,,0.00,,2013-03-05 20:21:00,
2013-03-05 14:32:00,24.0,16.0,30.30,WNW,298,0.0,0.0,70,0.00,,,0.00,,2013-03-05 20:32:00,
2013-03-05 14:42:00,24.0,16.0,30.30,WNW,298,0.0,0.0,70,0.00,,,0.00,,2013-03-05 20:42:00,
2013-03-05 14:52:00,24.0,15.0,30.30,North,5,0.0,0.0,69,0.00,,,0.00,,2013-03-05 20:52:00,
2013-03-05 15:02:00,24.0,15.0,30.31,NNW,338,0.0,0.0,69,0.00,,,0.00,,2013-03-05 21:02:00,
2013-03-05 15:11:00,24.0,15.0,30.31,NNW,338,0.0,0.0,69,0.00,,,0.00,,2013-03-05 21:11:00,
2013-03-05 15:21:00,24.0,15.0,30.32,North,349,0.0,0.0,68,0.00,,,0.00,,2013-03-05 21:21:00,
2013-03-05 15:31:00,24.0,15.0,30.32,WNW,300,0.0,0.0,68,0.00,,,0.00,,2013-03-05 21:31:00,
2013-03-05 15:42:00,24.0,15.0,30.32,WNW,300,0.0,0.0,68,0.00,,,0.00,,2013-03-05 21:42:00,
2013-03-05 15:52:00,24.0,15.0,30.33,NNW,343,0.0,0.0,68,0.00,,,0.00,,2013-03-05 21:52:00,
2013-03-05 16:01:00,23.0,14.0,30.34,NNW,329,0.0,0.0,69,0.00,,,0.00,,2013-03-05 22:01:00,
2013-03-05 16:11:00,23.0,14.0,30.34,NNW,329,0.0,0.0,69,0.00,,,0.00,,2013-03-05 22:11:00,
2013-03-05 16:22:00,23.0,14.0,30.34,West,259,0.0,0.0,69,0.00,,,0.00,,2013-03-05 22:22:00,
2013-03-05 16:32:00,23.0,14.0,30.35,NNW,329,0.0,0.0,69,0.00,,,0.00,,2013-03-05 22:32:00,
2013-03-05 16:41:00,23.0,14.0,30.35,NNW,329,0.0,0.0,69,0.00,,,0.00,,2013-03-05 22:41:00,
2013-03-05 16:52:00,23.0,14.0,30.36,WSW,254,0.0,0.0,68,0.00,,,0.00,,2013-03-05 22:52:00,
2013-03-05 17:01:00,23.0,14.0,30.37,NNW,346,0.0,0.0,68,0.00,,,0.00,,2013-03-05 23:01:00,
2013-03-05 17:11:00,23.0,14.0,30.37,NNW,346,0.0,0.0,68,0.00,,,0.00,,2013-03-05 23:11:00,
2013-03-05 17:21:00,22.0,13.0,30.37,West,273,0.0,0.0,69,0.00,,,0.00,,2013-03-05 23:21:00,
2013-03-05 17:32:00,22.0,14.0,30.37,SW,234,0.0,0.0,71,0.00,,,0.00,,2013-03-05 23:32:00,
2013-03-05 17:42:00,22.0,14.0,30.37,SW,234,0.0,0.0,71,0.00,,,0.00,,2013-03-05 23:42:00,
2013-03-05 17:53:00,22.0,14.0,30.38,WNW,302,0.0,0.0,72,0.00,,,0.00,,2013-03-05 23:53:00,
2013-03-05 18:01:00,21.0,13.0,30.39,WNW,295,0.0,0.0,72,0.00,,,0.00,,2013-03-06 00:01:00,
2013-03-05 18:11:00,21.0,13.0,30.39,WNW,295,0.0,0.0,72,0.00,,,0.00,,2013-03-06 00:11:00,
2013-03-05 18:21:00,21.0,13.0,30.39,West,270,0.0,0.0,72,0.00,,,0.00,,2013-03-06 00:21:00,
2013-03-05 18:32:00,21.0,13.0,30.40,NW,304,0.0,0.0,72,0.00,,,0.00,,2013-03-06 00:32:00,
2013-03-05 18:42:00,21.0,13.0,30.40,NW,304,0.0,0.0,72,0.00,,,0.00,,2013-03-06 00:42:00,
2013-03-05 18:52:00,21.0,13.0,30.40,NW,322,0.0,0.0,71,0.00,,,0.00,,2013-03-06 00:52:00,
2013-03-05 19:01:00,20.0,12.0,30.41,NW,318,0.0,0.0,70,0.00,,,0.00,,2013-03-06 01:01:00,
2013-03-05 19:11:00,20.0,12.0,30.41,NW,318,0.0,0.0,70,0.00,,,0.00,,2013-03-06 01:11:00,
2013-03-05 19:21:00,20.0,12.0,30.41,WSW,257,0.0,0.0,70,0.00,,,0.00,,2013-03-06 01:21:00,
2013-03-05 19:32:00,20.0,12.0,30.42,NNW,333,0.0,0.0,70,0.00,,,0.00,,2013-03-06 01:32:00,
2013-03-05 19:42:00,20.0,12.0,30.42,NNW,333,0.0,0.0,70,0.00,,,0.00,,2013-03-06 01:42:00,
2013-03-05 19:52:00,20.0,12.0,30.42,WNW,300,0.0,0.0,71,0.00,,,0.00,,2013-03-06 01:52:00,
2013-03-05 20:01:00,20.0,12.0,30.41,NW,325,0.0,0.0,72,0.00,,,0.00,,2013-03-06 02:01:00,
2013-03-05 20:11:00,20.0,12.0,30.41,NW,325,0.0,0.0,72,0.00,,,0.00,,2013-03-06 02:11:00,
2013-03-05 20:22:00,20.0,12.0,30.40,NNW,348,0.0,0.0,71,0.00,,,0.00,,2013-03-06 02:22:00,
2013-03-05 20:32:00,19.0,11.0,30.40,NNW,345,0.0,0.0,71,0.00,,,0.00,,2013-03-06 02:32:00,
2013-03-05 20:42:00,19.0,11.0,30.40,NNW,345,0.0,0.0,71,0.00,,,0.00,,2013-03-06 02:42:00,
2013-03-05 20:52:00,19.0,11.0,30.40,North,355,0.0,0.0,70,0.00,,,0.00,,2013-03-06 02:52:00,
2013-03-05 21:01:00,19.0,11.0,30.42,NNW,339,0.0,0.0,70,0.00,,,0.00,,2013-03-06 03:01:00,
2013-03-05 21:11:00,19.0,11.0,30.42,NNW,339,0.0,0.0,70,0.00,,,0.00,,2013-03-06 03:11:00,
2013-03-05 21:22:00,19.0,11.0,30.43,WNW,296,0.0,0.0,70,0.00,,,0.00,,2013-03-06 03:22:00,
2013-03-05 21:32:00,19.0,11.0,30.43,North,355,0.0,0.0,70,0.00,,,0.00,,2013-03-06 03:32:00,
2013-03-05 21:42:00,19.0,11.0,30.43,North,355,0.0,0.0,70,0.00,,,0.00,,2013-03-06 03:42:00,
2013-03-05 21:52:00,19.0,11.0,30.44,North,5,0.0,0.0,70,0.00,,,0.00,,2013-03-06 03:52:00,
2013-03-05 22:02:00,19.0,11.0,30.44,WNW,292,0.0,0.0,70,0.00,,,0.00,,2013-03-06 04:02:00,
2013-03-05 22:11:00,19.0,11.0,30.44,WNW,292,0.0,0.0,70,0.00,,,0.00,,2013-03-06 04:11:00,
2013-03-05 22:21:00,18.0,10.0,30.44,North,355,0.0,0.0,70,0.00,,,0.00,,2013-03-06 04:21:00,
2013-03-05 22:32:00,18.0,10.0,30.44,NW,308,0.0,0.0,70,0.00,,,0.00,,2013-03-06 04:32:00,
2013-03-05 22:41:00,18.0,10.0,30.44,NW,308,0.0,0.0,70,0.00,,,0.00,,2013-03-06 04:41:00,
2013-03-05 22:52:00,18.0,10.0,30.43,West,259,0.0,0.0,70,0.00,,,0.00,,2013-03-06 04:52:00,
2013-03-05 23:01:00,18.0,10.0,30.44,NNE,15,0.0,0.0,70,0.00,,,0.00,,2013-03-06 05:01:00,
2013-03-05 23:11:00,18.0,10.0,30.44,NNE,15,0.0,0.0,70,0.00,,,0.00,,2013-03-06 05:11:00,
2013-03-05 23:22:00,17.0,9.0,30.44,West,263,0.0,0.0,71,0.00,,,0.00,,2013-03-06 05:22:00,
2013-03-05 23:32:00,17.0,9.0,30.45,NNW,344,0.0,0.0,71,0.00,,,0.00,,2013-03-06 05:32:00,
2013-03-05 23:42:00,17.0,9.0,30.45,NNW,344,0.0,0.0,71,0.00,,,0.00,,2013-03-06 05:42:00,
2013-03-05 23:52:00,17.0,9.0,30.44,NW,307,0.0,0.0,71,0.00,,,0.00,,2013-03-06 05:52:00,